Home   Weather   Apolda   Past weeks

Flag for Germany Past Weather in Apolda, Thuringia, Germany — Yesterday and Last 2 Weeks

Now
70 °F

Passing clouds.


Feels Like: 70 °F
Forecast: 49 / 69 °F
Wind: 3 mph from Southeast

Location: Erfurt-Bindersleben

Current Time: Sep 25, 2016 at 5:43:15 PM

Latest Report: Sep 25, 2016 at 5:20 PM


Visibility: N/A

Pressure: 30.09 "Hg

Humidity: 46%

Dew Point: 48 °F

Location of ApoldaLocation

Past Weather in Apolda — Graph

°F

Apolda Temperature Yesterday

Maximum temperature yesterday: 72 °F (at 2:50 PM)
Minimum temperature yesterday: 45 °F (at 6:50 AM)
Average temperature yesterday: 58 °F

High & Low Weather Summary for the Past Weeks

 TemperatureHumidityPressure
High90 °F (Sep 12, 4:20 PM)100% (Sep 17, 2:20 AM)30.33 "Hg (Sep 17, 2:20 AM)
Low43 °F (Sep 21, 5:50 AM)29% (Sep 12, 3:50 PM)29.89 "Hg (Sep 15, 3:20 PM)
Average63 °F71%30.06 "Hg
* Reported Sep 10 4:20 PM — Sep 25 4:20 PM, Apolda, Weather by CustomWeather, © 2016

Note: Actual official high and low records may vary slightly from our data, if they occured in-between our weather recording intervals... More about our weather records

Advertising

Apolda Weather History for the Previous 24 Hours

Scroll right to see more
 ConditionsComfort  
Time TempWeatherWind HumidityBarometerVisibility
4:20 PM
Sun, Sep 25
72 °FPassing clouds.5 mph47%30.09 "HgN/A
3:50 PM72 °FSunny.2 mph41%30.09 "Hg10 mi
3:20 PM72 °FPassing clouds.5 mph44%30.09 "HgN/A
2:50 PM72 °FSunny.3 mph47%30.09 "Hg10 mi
2:20 PM72 °FPassing clouds.5 mph44%30.12 "HgN/A
1:50 PM72 °FPassing clouds.5 mph44%30.12 "HgN/A
1:20 PM72 °FSunny.5 mph47%30.12 "Hg10 mi
12:50 PM70 °FSunny.6 mph53%30.12 "Hg10 mi
12:20 PM68 °FSunny.6 mph53%30.15 "Hg10 mi
11:50 AM68 °FPassing clouds.7 mph53%30.15 "HgN/A
11:20 AM66 °FPassing clouds.6 mph56%30.15 "HgN/A
10:50 AM64 °FSunny.3 mph60%30.15 "Hg10 mi
10:20 AM63 °FPassing clouds.3 mph64%30.15 "HgN/A
9:50 AM59 °FPassing clouds.5 mph68%30.15 "HgN/A
9:20 AM57 °FSunny.6 mph72%30.15 "Hg10 mi
8:50 AM55 °FSunny.7 mph72%30.18 "Hg10 mi
8:20 AM54 °FSunny.7 mph77%30.18 "Hg10 mi
7:50 AM52 °FSunny.8 mph77%30.15 "Hg10 mi
7:20 AM50 °FSunny.9 mph82%30.15 "Hg10 mi
6:50 AM50 °FClear.10 mph82%30.15 "Hg10 mi
6:20 AM52 °FClear.10 mph77%30.18 "Hg10 mi
5:50 AM52 °FClear.12 mph77%30.18 "Hg10 mi
5:20 AM52 °FClear.10 mph82%30.18 "Hg10 mi
4:50 AM52 °FClear.12 mph82%30.18 "Hg10 mi
4:20 AM52 °FClear.10 mph82%30.18 "Hg10 mi
3:50 AM54 °FClear.10 mph77%30.18 "Hg10 mi
3:20 AM54 °FClear.9 mph82%30.18 "Hg10 mi
2:50 AM54 °FClear.9 mph82%30.21 "Hg10 mi
2:20 AM54 °FClear.9 mph82%30.21 "Hg10 mi
1:50 AM54 °FClear.9 mph82%30.21 "Hg10 mi
1:20 AM54 °FClear.9 mph82%30.21 "Hg10 mi
12:50 AM55 °FClear.9 mph82%30.21 "Hg10 mi
12:20 AM57 °FClear.10 mph77%30.21 "Hg10 mi
11:50 PM
Sat, Sep 24
57 °FClear.9 mph77%30.21 "Hg10 mi
11:20 PM57 °FClear.7 mph77%30.21 "Hg10 mi
10:50 PM57 °FClear.6 mph77%30.21 "Hg10 mi
10:20 PM59 °FClear.7 mph72%30.21 "Hg10 mi
9:50 PM59 °FClear.6 mph77%30.24 "Hg10 mi
9:20 PM61 °FPassing clouds.6 mph68%30.24 "HgN/A
8:50 PM61 °FClear.5 mph68%30.24 "Hg10 mi
8:20 PM61 °FClear.5 mph68%30.24 "Hg10 mi
7:50 PM63 °FClear.5 mph64%30.24 "Hg10 mi
7:20 PM64 °FClear.5 mph60%30.24 "Hg10 mi
6:50 PM66 °FSunny.3 mph56%30.24 "Hg10 mi
6:20 PM68 °FSunny.3 mph53%30.24 "Hg10 mi
5:50 PM68 °FSunny.2 mph53%30.24 "Hg10 mi
5:20 PM70 °FPassing clouds.3 mph50%30.24 "HgN/A
Weather by CustomWeather, © 2016

See weather overviewHow to use our weather pages